Siemreap, Cambodia

3:20 AM +07 on June 29, 2017 (GMT +0700)
Siem Reap

Weather History for VDSR - January, 2014

Change the Weather History Date:

Monday, January 27, 2014

  Actual Average Record
Temperature  
Mean Temperature 78 °F -  
Max Temperature 86 °F - - ()
Min Temperature 69 °F - - ()
Cooling Degree Days 12    
Growing Degree Days 28 (Base 50)    
Moisture  
Dew Point 63 °F    
Average Humidity 64    
Maximum Humidity 88    
Minimum Humidity 40    
Precipitation  
Precipitation 0.00 in - - ()
Sea Level Pressure  
Sea Level Pressure 29.91 in    
Wind  
Wind Speed 6 mph ()    
Max Wind Speed 15 mph    
Max Gust Speed -    
Visibility 5.2 miles    
Events      
T = Trace of Precipitation, MM = Missing Value Source: Averaged Metar Reports

Daily Weather History Graph

Daily Weather History Graph

Search for Another Location

Airport or City:

Trip Planner

Search our weather history database for the weather conditions in past years. The results will help you decide how hot, cold, wet, or windy it might be!

Date:

Astronomy

Jan. 27, 2014 Rise Set
Actual Time 6:31 AM +07 6:02 PM +07
Civil Twilight 6:09 AM +07 6:25 PM +07
Nautical Twilight 5:43 AM +07 6:50 PM +07
Astronomical Twilight 5:18 AM +07 7:16 PM +07
Moon 2:34 AM +07 (1/27) 2:23 PM +07 (1/27)
Length of Visible Light 12h 15m
Length of Day
11h 30m
Waning Crescent, 19% of the Moon is Illuminated
Jan 27
Waning Crescent
Jan 31
New
Feb 7
First Quarter
Feb 15
Full
Feb 23
Last Quarter

Hourly Weather History & Observations

Time (+07) Temp. Heat Index Dew Point Humidity Pressure Visibility Wind Dir Wind Speed Gust Speed Precip Events Conditions
12:00 AM 71.6 °F - 64.4 °F 78% 29.92 in 3.7 mi Variable 1.2 mph - N/A   Unknown
12:30 AM 69.8 °F - 62.6 °F 78% 29.92 in 3.7 mi North 1.2 mph - N/A   Unknown
1:00 AM 69.8 °F - 62.6 °F 78% 29.89 in 3.7 mi Variable 2.3 mph - N/A   Unknown
7:00 AM 69.8 °F - 62.6 °F 78% 29.95 in 5.0 mi East 8.1 mph - N/A   Unknown
7:30 AM 69.8 °F - 62.6 °F 78% 29.95 in 5.0 mi ESE 9.2 mph - N/A   Unknown
8:00 AM 71.6 °F - 62.6 °F 73% 29.95 in 5.0 mi East 9.2 mph - N/A   Unknown
8:30 AM 75.2 °F - 60.8 °F 61% 29.98 in 5.0 mi East 13.8 mph - N/A   Unknown
9:00 AM 75.2 °F - 60.8 °F 61% 29.98 in 5.0 mi East 13.8 mph - N/A   Unknown
9:30 AM 78.8 °F - 60.8 °F 54% 29.98 in 5.6 mi East 13.8 mph - N/A   Unknown
10:00 AM 78.8 °F - 60.8 °F 54% 29.98 in - ESE 15.0 mph - N/A   Clear
10:30 AM 78.8 °F - 60.8 °F 54% 29.98 in - ESE 15.0 mph - N/A   Clear
11:00 AM 82.4 °F 82.0 °F 57.2 °F 42% 29.98 in - SE 10.4 mph - N/A   Clear
11:30 AM 84.2 °F 83.5 °F 57.2 °F 40% 29.95 in - SE 10.4 mph - N/A   Clear
12:00 PM 84.2 °F 83.5 °F 57.2 °F 40% 29.95 in - East 6.9 mph - N/A   Clear
12:30 PM 84.2 °F 83.5 °F 57.2 °F 40% 29.92 in - East 11.5 mph - N/A   Clear
1:00 PM 86.0 °F 86.6 °F 62.6 °F 45% 29.92 in - East 6.9 mph - N/A   Clear
1:30 PM 82.4 °F 83.4 °F 62.6 °F 51% 29.89 in - South 6.9 mph - N/A   Clear
2:00 PM 82.4 °F 83.4 °F 62.6 °F 51% 29.86 in - SSW 10.4 mph - N/A   Clear
2:30 PM 82.4 °F 83.4 °F 62.6 °F 51% 29.86 in - South 10.4 mph - N/A   Clear
3:00 PM 82.4 °F 83.4 °F 62.6 °F 51% 29.86 in - SSW 11.5 mph - N/A   Clear
3:30 PM 84.2 °F 85.0 °F 62.6 °F 48% 29.83 in - SSE 10.4 mph - N/A   Clear
4:00 PM 84.2 °F 84.4 °F 60.8 °F 45% 29.83 in - South 10.4 mph - N/A   Clear
4:30 PM 82.4 °F 83.4 °F 62.6 °F 51% 29.83 in - SSW 5.8 mph - N/A   Clear
5:00 PM 80.6 °F 82.3 °F 64.4 °F 58% 29.86 in 5.6 mi South 8.1 mph - N/A   Partly Cloudy
5:30 PM 80.6 °F 82.3 °F 64.4 °F 58% 29.86 in 5.6 mi SSW 5.8 mph - N/A   Partly Cloudy
6:00 PM 78.8 °F - 66.2 °F 65% 29.86 in 5.6 mi South 5.8 mph - N/A   Scattered Clouds
6:30 PM 77.0 °F - 66.2 °F 69% 29.86 in 5.6 mi Variable 2.3 mph - N/A   Scattered Clouds
7:00 PM 77.0 °F - 66.2 °F 69% 29.89 in 5.6 mi Calm Calm - N/A   Scattered Clouds
7:30 PM 75.2 °F - 66.2 °F 73% 29.89 in 5.6 mi Variable 1.2 mph - N/A   Scattered Clouds
8:00 PM 75.2 °F - 69.8 °F 83% 29.89 in 5.6 mi Calm Calm - N/A   Scattered Clouds
8:30 PM 73.4 °F - 68.0 °F 83% 29.92 in 5.6 mi Calm Calm - N/A   Scattered Clouds
9:00 PM 73.4 °F - 68.0 °F 83% 29.92 in 5.6 mi Calm Calm - N/A   Scattered Clouds
9:30 PM 73.4 °F - 68.0 °F 83% 29.92 in 5.6 mi NE 3.5 mph - N/A   Scattered Clouds
10:00 PM 71.6 °F - 68.0 °F 88% 29.92 in 5.6 mi NNW 4.6 mph - N/A   Scattered Clouds
10:30 PM 71.6 °F - 68.0 °F 88% 29.92 in 5.6 mi NNE 3.5 mph - N/A   Scattered Clouds
11:00 PM 71.6 °F - 66.2 °F 83% 29.92 in 5.6 mi NE 2.3 mph - N/A   Scattered Clouds
11:30 PM 71.6 °F - 66.2 °F 83% 29.92 in 5.6 mi Variable 1.2 mph - N/A   Scattered Clouds